Home   Weather   Bissau   Past weeks

Flag for Guinea-Bissau Past Weather in Bissau, Guinea-Bissau — Yesterday and Last 2 Weeks

Now
75 °F

Passing clouds.


Feels Like: 77 °F
Forecast: 73 / 96 °F
Wind: 3 mph from North

Location: Bissau Aeroport

Current Time: Apr 23, 2017 at 10:09:25 am

Latest Report: Apr 23, 2017 at 9:00 am


Visibility: N/A

Pressure: 29.86 "Hg

Humidity: 69%

Dew Point: 64 °F

Location of BissauLocation

Past Weather in Bissau — Graph

°F

Bissau Temperature Yesterday

Maximum temperature yesterday: 91 °F (at 2:00 pm)
Minimum temperature yesterday: 73 °F (at 6:00 am)
Average temperature yesterday: 83 °F

High & Low Weather Summary for the Past Weeks

 TemperatureHumidityPressure
High102 °F (Apr 8, 3:00 pm)100% (Apr 12, 5:00 am)29.89 "Hg (Apr 12, 5:00 am)
Low70 °F (Apr 23, 7:00 am)9% (Apr 8, 4:00 pm)29.65 "Hg (Apr 8, 6:00 pm)
Average85 °F56%29.79 "Hg
* Reported Apr 8 9:00 am — Apr 23 9:00 am, Bissau, Weather by CustomWeather, © 2017

Note: Actual official high and low records may vary slightly from our data, if they occured in-between our weather recording intervals... More about our weather records

Advertising

Bissau Weather History for the Previous 24 Hours

Scroll right to see more
 ConditionsComfort  
Time TempWeatherWind HumidityBarometerVisibility
9:00 am
Sun, Apr 23
75 °FPassing clouds.3 mph69%29.86 "HgN/A
8:00 am72 °FClear.5 mph88%29.86 "Hg5 mi
7:00 am70 °FClear.3 mph88%29.86 "Hg5 mi
4:00 am72 °FClear.5 mph88%29.86 "Hg10 mi
3:00 am73 °FClear.6 mph83%29.86 "Hg10 mi
2:00 am73 °FClear.6 mph89%29.86 "Hg10 mi
12:00 am77 °FClear.3 mph83%29.89 "Hg10 mi
11:00 pm
Sat, Apr 22
77 °FClear.3 mph83%29.89 "Hg10 mi
10:00 pm79 °FClear.5 mph79%29.86 "Hg10 mi
9:00 pm81 °FClear.8 mph79%29.83 "Hg10 mi
8:00 pm82 °FClear.9 mph79%29.80 "Hg10 mi
7:00 pm86 °FSunny.12 mph66%29.77 "Hg10 mi
6:00 pm88 °FSunny.13 mph62%29.74 "Hg10 mi
5:00 pm90 °FSunny.13 mph55%29.74 "Hg10 mi
4:00 pm91 °FPassing clouds.9 mph46%29.74 "HgN/A
3:00 pm91 °FPassing clouds.8 mph41%29.77 "HgN/A
2:00 pm91 °FPassing clouds.8 mph46%29.83 "HgN/A
1:00 pm90 °FPassing clouds.7 mph55%29.86 "HgN/A
12:00 pm86 °FPassing clouds.9 mph62%29.89 "HgN/A
11:00 am84 °FClear.7 mph66%29.89 "Hg5 mi
10:00 am82 °FPassing clouds.3 mph66%29.89 "Hg5 mi
Weather by CustomWeather, © 2017

See weather overviewHow to use our weather pages